Skip Page Navigation
NASA JPL Caltech
NASA Logo - Jet Propulsion Laboratory + View the NASA Portal
+ Center for Near-Earth Object Studies
JPL Home Earth Solar System Stars & Galaxies Technology
JPL Solar System Dynamics
BODIES ORBITS EPHEMERIDES TOOLS PHYSICAL DATA DISCOVERY FAQ SITE MAP
JPL Small-Body Database Browser
Search: [ help ]  
192999 (2000 DG111)
Classification: Main-belt Asteroid          SPK-ID: 2192999
Ephemeris | Orbit Diagram | Orbital Elements | Mission Design | Physical Parameters | Discovery Circumstances | Close-Approach Data ]

[ show orbit diagram ]
Orbital Elements at Epoch 2459200.5 (2020-Dec-17.0) TDB
Reference: JPL 21 (heliocentric ecliptic J2000)
 Element Value Uncertainty (1-sigma)   Units 
e .1115559709411979 4.2341e-08  
a 3.117701101289001 2.2323e-08 au
q 2.769902927830265 1.3966e-07 au
i 17.37483419440021 4.4283e-06 deg
node 156.3625660584698 1.5111e-05 deg
peri 280.3328645962728 2.6445e-05 deg
M 344.8455837903644 2.07e-05 deg
tp 2459285.142182176508
(2021-Mar-11.64218218)
0.00011563 TDB
period 2010.713257576266
5.51
2.1595e-05
5.912e-08
d
yr
n .1790409441244485 1.9229e-09 deg/d
Q 3.465499274747738 2.4813e-08 au
  Orbit Determination Parameters
   # obs. used (total)      528  
   data-arc span      8531 days (23.36 yr)  
   first obs. used      1997-10-05  
   last obs. used      2021-02-12  
   planetary ephem.      DE441  
   SB-pert. ephem.      SB441-N16  
   condition code      0  
   norm. resid. RMS      .559  
   source      ORB  
   producer      Otto Matic  
   solution date      2021-Apr-13 22:18:25  

Additional Information
 Earth MOID = 1.85003 au 
 Jupiter MOID = 1.84136 au 
 T_jup = 3.137 
[ show covariance matrix ]

Ephemeris | Orbit Diagram | Orbital Elements | Mission Design | Physical Parameters | Discovery Circumstances | Close-Approach Data ]

Physical Parameter Table
Parameter Symbol Value Units Sigma Reference Notes
absolute magnitude H 15.01   n/a MPCxxxxx  
diameter diameter 6.051 km 0.288 urn:nasa:pds:neowise_diameters_albedos::2.0[mainbelt] (http://adsabs.harvard.edu/abs/2011ApJ...741...68M)  
geometric albedo albedo 0.053   0.004 urn:nasa:pds:neowise_diameters_albedos::2.0[mainbelt] (http://adsabs.harvard.edu/abs/2011ApJ...741...68M)  

192999 (2000 DG111)          Discovered 2000-Feb-29 by LINEAR at Socorro
Reference: 20081113/Numbers.arcLast Updated: 2008-11-17

[ hide close-approach data ]
Close-Approach Data   ...sorted by Date/Time (TDB)
Date/Time (TDB) Time Uncertainty
(days_HH:MM)
Body Nominal Distance (au) Minimum Distance (au) Maximum Distance (au) V-relative (km/s) V-infinity (km/s) JD (TDB) Time Uncertainty (minutes) Semi-major axis (km) Semi-minor axis (km) range-LOV angle (deg) N-sigma BP Orbit Ref. Reference Modified
1915-Mar-16 00:40 00:03 Jupiter 1.90532504637836 1.90532430618295 1.90532578659294 5.53971176243827 5.45887311074648 2420572.527993560 3.00594561255831 367.354779550985 19.7189397861805 85.4564035894323 4008332.64357845 T 21 CATAB v2.0f-lin.ifort 2021-Apr-13 22:18:27 2021-Apr-13 22:18
1997-May-21 13:08 < 00:01 Jupiter 1.92100431059175 1.92100381856592 1.92100480261781 4.82994622054788 4.73777655196484 2450590.047360888 0.653774233902586 91.2750597127368 21.8881011499696 -84.1630548920569 3601151.03511696 T 21 CATAB v2.0f-lin.ifort 2021-Apr-13 22:18:27 2021-Apr-13 22:18
2069-Mar-25 00:33 00:02 Jupiter 1.87465532311815 1.87465487229831 1.87465577393927 5.38760465418867 5.30307713635898 2476830.522914601 1.51309319390133 191.071345587585 19.6018615363411 87.5329968217052 3828263.48252296 T 21 CATAB v2.0f-lin.ifort 2021-Apr-13 22:18:27 2021-Apr-13 22:18
2141-Jan-25 00:01 00:04 Jupiter 1.97767907926697 1.97767732524229 1.97768083332065 5.61614042554749 5.53935473812676 2503068.500651833 3.66575535997689 402.630111656274 20.9740425092227 77.9330786127526 3987957.59299686 T 21 CATAB v2.0f-lin.ifort 2021-Apr-13 22:18:27 2021-Apr-13 22:18
2151-May-31 03:01 00:04 Jupiter 1.92308063487175 1.92307923242816 1.92308203734289 4.66754118880202 4.57220286490506 2506846.625636734 4.15985880832162 394.923492236378 22.6725887974224 -79.2198262757248 3129744.36725577 T 21 CATAB v2.0f-lin.ifort 2021-Apr-13 22:18:27 2021-Apr-13 22:18
Ephemeris | Orbit Diagram | Orbital Elements | Mission Design | Physical Parameters | Discovery Circumstances | Close-Approach Data ]
ABOUT SSD CREDITS/AWARDS PRIVACY/COPYRIGHT GLOSSARY LINKS
FirstGov 2021-Jun-22 21:56 UT
(server date/time)  
NASA Home Page
Site Manager:   Ryan S. Park
Webmaster  Alan B. Chamberlin